Location: Asheville, NC
(35.6000°N, 82.5500°W)
Time: 14:22:43
(UTC-04:00)

AO-7 - Pass Details

Date: 07 January 2018
Orbit: 1439 x 1459 km, 101.7° (Epoch: 24 April)

Event Time Altitude Azimuth Distance (km) Brightness Sun altitude
Rises 04:11:10 0° 16° (NNE) 4,570 ? -41.8°
Reaches altitude 10° 04:13:57 10° 17° (NNE) 3,588 ? -41.3°
Enters shadow 04:18:36 38° 20° (NNE) 2,080 ? -40.3°
